Location: Donald C. Martin Observatory
(38.3885°N, 82.3916°W)
Time: 16:15:40
(UTC-04:00)

Daily predictions for brighter satellites

Satellite Brightness Start Highest point End
(mag) Time Altitude Azimuth Time Altitude Azimuth Time Altitude Azimuth
Cosmos 1809 Rocket 4.5 20:27:00 10° S 20:33:08 73° E 20:39:15 10° NNE
Cosmos 1892 Rocket 4.0 20:29:42 10° N 20:34:00 44° E 20:38:17 10° SSE
Cosmos 1025 Rocket 3.0 20:30:59 10° N 20:35:22 76° E 20:39:41 10° SSE
Cosmos 1455 Rocket 3.6 20:34:05 10° SSE 20:38:02 36° E 20:42:02 10° NNE
Cosmos 2369 4.2 20:33:03 10° S 20:38:10 37° ESE 20:43:21 10° NE
H-2A R/B 3.5 20:35:12 10° SE 20:38:42 34° ENE 20:42:17 10° N
Resurs 1-3 3.6 20:34:21 10° SSE 20:38:43 83° ENE 20:43:08 10° N
NOSS 2-1 (E) 3.5 20:35:52 10° SW 20:39:44 83° WNW 20:44:07 10° NNE
Cosmos 1461 4.1 20:37:57 10° N 20:41:20 25° NE 20:44:37 10° ESE
METEOR-M 4.4 20:37:56 10° S 20:43:16 74° WSW 20:48:38 10° NNW
Meteor 1-23 Rocket 4.2 20:37:43 10° N 20:43:21 71° E 20:49:02 10° SSE
Meteor 1-29 3.9 20:40:48 10° N 20:44:11 54° WNW 20:47:35 10° SSW
Cosmos 2239 Rocket 4.5 20:39:21 10° S 20:45:35 79° E 20:51:47 10° N
Cosmos 1633 3.6 20:47:11 10° SSW 20:50:45 50° W 20:54:19 10° N
Centaur D-1A AC-32 4.0 20:48:28 10° SW 20:51:28 16° SSW 20:53:38 10° SSE
FengYun 1-2 T 4.4 20:49:20 10° S 20:55:00 81° WSW 21:00:38 10° NNW
CZ-2D R/B 3.3 20:51:37 10° SSE 20:55:25 63° ENE 20:59:17 10° N
Resurs 01 Rocket 2.8 20:51:34 10° S 20:55:48 46° W 21:00:06 10° NNW
Cosmos 1934 Rocket 3.9 20:49:46 10° S 20:55:50 74° E 21:02:03 10° N
Lacrosse 5 3.9 20:52:45 10° NNW 20:56:00 17° NNE 20:59:16 10° ENE
Hubble Space Telescope 2.8 20:57:31 10° SW 21:00:16 17° S 21:03:00 10° SSE
Cosmos 1777 Rocket 4.1 20:58:38 10° NNW 21:03:54 80° WSW 21:09:09 10° SSE
EP 1 4.1 21:06:33 10° SW 21:09:04 80° WNW 21:11:37 10° NNE
Delta 2 Rocket 4.2 21:04:57 10° W 21:10:31 58° S 21:14:10 19° ESE
Cosmos 1346 Rocket 2.7 21:07:17 10° N 21:11:15 80° E 21:15:14 10° S
Cosmos 1544 Rocket 4.1 21:07:25 10° SSW 21:11:44 63° W 21:16:07 10° N
USA 186 1.5 21:10:14 10° SSE 21:13:23 87° ENE 21:16:21 10° N
Cosmos 2227 Rocket 2.3 21:08:03 10° NNW 21:13:41 62° ENE 21:18:21 15° SE
FENGYUN 3A 3.8 21:08:34 10° S 21:13:54 79° WSW 21:19:17 10° NNW
Tiangong 1 2.3 21:11:05 10° WNW 21:13:59 36° N 21:16:25 13° ENE
OTV 4 0.4 21:12:28 10° W 21:15:25 70° S 21:16:45 29° ESE
Cosmos 2208 Rocket 4.2 21:11:54 10° SSW 21:17:12 78° WNW 21:22:36 10° NNE
Cosmos 1656 3.9 21:14:07 10° S 21:19:27 46° ESE 21:24:45 10° NE
Cosmos 1500 4.0 21:18:30 23° SE 21:19:50 29° E 21:23:09 10° NNE
RESURS DK-1 4.3 21:19:08 10° NNE 21:21:25 14° NE 21:22:21 13° ENE
NOSS 3-4 (A) 3.9 21:14:22 10° NNW 21:21:29 89° WSW 21:28:01 14° SSE
NOSS 3-4 (C) 3.8 21:14:29 10° NNW 21:21:36 90° WSW 21:28:06 15° SSE
BREEZE-M TANK 4.1 21:08:08 10° WNW 21:21:58 56° N 21:24:54 18° E
Cosmos 2082 3.6 21:21:30 10° NNW 21:27:08 75° ENE 21:31:16 19° SSE
CZ-4 DEB 2.9 21:26:40 34° SE 21:27:41 51° ENE 21:30:45 10° N
Cosmos 2297 Rocket 2.3 21:23:45 10° NNW 21:29:21 60° ENE 21:32:48 23° SE
Envisat 3.3 21:34:13 26° SE 21:36:45 49° ENE 21:41:38 10° N
Cosmos 2173 Rocket 4.4 21:32:57 17° SSE 21:37:23 42° E 21:43:18 10° NNE
Milstar 3 Cent rocket 4.5 21:16:19 10° WSW 21:38:34 57° S 21:45:56 25° ESE
Cosmos 1605 Rocket 4.3 21:34:31 10° SSW 21:40:50 70° W 21:47:08 10° N
SJ-11-01 4.2 21:38:17 22° SSE 21:41:19 79° ENE 21:46:01 10° N
Cosmos 1937 Rocket 4.3 21:37:31 10° N 21:42:18 33° ENE 21:43:40 29° E
Cosmos 1515 3.6 21:40:05 10° N 21:43:56 65° E 21:44:57 44° SE
ASTEX 1 4.3 21:42:08 10° NNE 21:46:26 29° E 21:46:26 29° E
OAO 2 Rocket 3.5 21:42:02 10° WSW 21:46:57 54° S 21:48:32 38° ESE
Cosmos 2100 Rocket 4.1 21:42:26 14° SSE 21:47:42 56° E 21:53:46 10° NNE
Cosmos 2061 Rocket 4.1 21:44:13 20° SSE 21:48:31 52° E 21:54:34 10° NNE
YAOGAN 6 4.2 21:49:35 22° NE 21:49:35 22° NE 21:51:47 10° NNE
Cosmos 1743 3.5 21:53:16 37° ENE 21:53:16 37° ENE 21:56:13 10° NNE
Cosmos 2150 Rocket 4.1 21:47:51 10° N 21:52:55 55° ENE 21:54:21 41° ESE
YAOGAN 11 4.3 21:50:15 24° S 21:52:59 74° WSW 21:57:29 10° NNW
Iridium 4 Rocket 3.4 21:48:16 10° N 21:53:24 77° W 21:56:49 18° S
Cosmos 1825 Rocket 4.2 21:51:19 10° N 21:55:21 38° ENE 21:55:21 38° ENE
Cosmos 1975 3.7 21:53:02 10° SSW 21:57:02 51° W 22:01:03 10° N
DELTA 2 R/B (1) 3.5 21:52:54 10° W 21:58:29 88° SSW 22:00:24 43° ESE
Cosmos 1066 Rocket 4.1 21:55:13 10° N 22:00:53 77° E 22:03:26 35° SSE
Cosmos 1697 Rocket 2.6 22:00:38 10° SSW 22:06:17 86° ESE 22:11:58 10° NNE
H-2A R/B 1.8 22:06:31 69° E 22:06:40 70° ENE 22:10:47 10° N
Lacrosse 5 rocket 1.2 22:05:59 10° NW 22:09:24 68° W 22:09:24 68° W
ERS-1 Rocket 3.4 22:07:44 25° S 22:10:32 58° W 22:15:31 10° NNW
deb Chang Zheng 4 3.6 22:12:32 10° N 22:17:01 80° WNW 22:18:17 47° SSW
Cosmos 1898 Rocket 3.5 22:12:35 10° NNW 22:17:55 82° WSW 22:19:08 54° S
Cosmos 1461 4.4 22:17:04 10° NW 22:20:27 26° WSW 22:21:13 24° SW
Cosmos 1725 Rocket 4.2 22:22:45 46° E 22:22:45 46° E 22:28:33 10° NNE
Nimbus 7 Rocket 4.4 22:17:02 10° NNE 22:23:08 84° WNW 22:27:55 17° SSW
Cosmos 1763 Rocket 3.8 22:24:18 49° ENE 22:24:18 49° ENE 22:28:16 10° NNE
Cosmos 1758 Rocket 4.5 22:19:19 10° N 22:22:20 37° NE 22:22:20 37° NE
Cosmos 1459 Rocket 4.0 22:21:24 22° SSW 22:25:30 77° W 22:31:37 10° N
Cosmos 1980 Rocket 2.0 22:26:51 50° S 22:28:23 79° ESE 22:34:06 10° NNE
Cosmos 1939 Rocket 4.2 22:27:38 32° SW 22:28:35 37° W 22:32:28 10° NNW
ARGOS 3.4 22:30:52 53° ENE 22:30:52 53° ENE 22:35:53 10° N
Lacrosse 5 2.0 22:34:45 10° NW 22:39:26 65° NNE 22:39:26 65° NNE
SPOT 5 3.2 22:41:21 59° SW 22:41:47 62° WSW 22:46:41 10° NNW
Cosmos 2058 Rocket 4.3 22:44:37 35° NNE 22:44:37 35° NNE 22:47:17 10° N
Cosmos 2084 4.4 22:39:17 10° NW 22:42:21 45° WNW 22:42:21 45° WNW
Cosmos 841 Rocket 3.8 22:45:04 56° NNE 22:45:04 56° NNE 22:49:10 10° NNE
USA 215 3.8 22:44:53 40° ENE 22:46:20 46° NE 22:52:31 10° NW
BREEZE-M DEB (TANK) 4.3 22:32:15 10° SW 22:47:51 76° SE 22:49:08 57° ENE
Meteor 1-21 4.3 22:43:36 10° NNW 22:49:21 73° W 22:49:52 68° SW
MetOp-B 4.3 22:49:21 62° WSW 22:49:41 63° WSW 22:55:00 10° NNW
Tiangong 1 4.3 22:47:51 10° WNW 22:48:23 14° WNW 22:48:23 14° WNW
Cosmos 2263 Rocket 3.8 22:54:54 10° N 22:58:16 22° NE 22:58:16 22° NE
RESURS DK-1 4.0 22:55:46 10° NW 22:58:17 32° NW 22:58:17 32° NW
Cosmos 2322 Rocket 3.9 23:03:22 22° NE 23:03:22 22° NE 23:05:18 10° NNE
Cosmos 2360 4.5 23:06:40 66° NNW 23:06:40 66° NNW 23:11:48 10° NNE
CZ-3C R/B 4.4 22:56:54 10° WSW 23:08:01 18° SW 23:09:52 17° SSW
Cosmos 2297 Rocket 4.3 23:09:17 10° WNW 23:12:49 17° W 23:14:38 15° WSW
H-2A R/B 3.2 23:19:51 37° N 23:19:51 37° N 23:22:47 10° N
BREEZE-M DEB (TANK) 4.1 23:02:01 10° WNW 23:18:04 56° NNE 23:18:46 54° NE
Terra 3.5 23:23:37 28° N 23:23:37 28° N 23:25:56 10° N
